Regional Weather Roundup
Issued by NWS

Home | Current Version | Previous Version | Text Only | Print | Product List | Glossary Off
Versions: 1 2 3 4 5 6 7 8 9 10 11 12 13 14 15 16 17 18 19 20 21 22 23 24 25 26 27 28 29 30 31 32 33 34 35 36 37 38 39 40 41 42 43 44 45 46 47 48 49 50

000
ASUS45 KABQ 161810
RWRNM
NEW MEXICO REGIONAL WEATHER ROUNDUP
NATIONAL WEATHER SERVICE ALBUQUERQUE NM
1200 PM MDT MON OCT 16 2017

NOTE: "FAIR" MEANS FEW OR NO CLOUDS BELOW 12,000 FEET AGL WITH NO
       SIGNIFICANT WEATHER OR OBSTRUCTIONS TO VISION.

      THIS PRODUCT IS RELEASED AS TWO VERSIONS.  ONE VERSION NEAR
      THE TOP OF THE HOUR CONTAINING PRELIMINARY DATA FROM ALBUQUERQUE
      AND OTHER STATIONS.  A FINAL VERSION WITH ADDITIONAL DATA IS
      ISSUED ABOUT 10 MINUTES AFTER THE HOUR.

NMZ501-503-504-510>518-161900-
NORTHWEST PLATEAU/NORTHCENTRAL MOUNTAINS

CITY           SKY/WX    TMP DP  RH WIND       PRES   REMARKS
FARMINGTON     FAIR      60  18  19 E5        30.46F
6HR MIN TEMP:  29; 6HR MAX TEMP:  60;

LOS ALAMOS     FAIR      54  22  28 CALM      30.54F
SANTA FE       FAIR      61  23  23 N8        30.50F
6HR MIN TEMP:  35; 6HR MAX TEMP:  61; 6HR PCP: TRACE;

TAOS           FAIR      59  17  19 CALM      30.55F
ANGEL FIRE     FAIR      60   7  12 W10G16    30.55F

$$
NMZ402-403-502-505>509-161900-
WESTCENTRAL MOUNTAINS/SOUTHWEST MOUNTAINS

CITY           SKY/WX    TMP DP  RH WIND       PRES   REMARKS
GALLUP         FAIR      65  18  16 NW3       30.49F
6HR MIN TEMP:  21; 6HR MAX TEMP:  67;

GRANTS         FAIR      62  18  18 SE8       30.52F
SILVER CITY    FAIR      67  33  28 SE3       30.47F

$$
NMZ407-409-411-412-161900-
SOUTHERN DESERTS

CITY           SKY/WX    TMP DP  RH WIND       PRES   REMARKS
DEMING         FAIR      70  34  26 E13       30.43F
6HR MIN TEMP:  46; 6HR MAX TEMP:  70;

LAS CRUCES     FAIR      68  29  23 E5        30.45F
HOLLOMAN AFB   FAIR      72  30  21 CALM      30.46F
ALAMOGORDO     FAIR      66  30  26 CALM      30.46F
T OR C         FAIR      67  29  24 CALM      30.45F
6HR MIN TEMP:  45; 6HR MAX TEMP:  67;


$$
NMZ519>523-161900-
CENTRAL VALLEYS/CENTRAL HIGHLANDS

CITY           SKY/WX    TMP DP  RH WIND       PRES   REMARKS
ALBUQUERQUE    FAIR      60  26  27 SW3       30.49F
6HR MIN TEMP:  42; 6HR MAX TEMP:  60;

DOUBLE EAGLE   SUNNY     61  25  25 VRB5      30.51F
MORIARTY ARPT  FAIR      62  30  29 CALM      30.50F
6HR MIN TEMP:  25; 6HR MAX TEMP:  63;

CLINES CORNERS FAIR      64  18  17 NW18G29   30.51
6HR MIN TEMP:  31; 6HR MAX TEMP:  64;

BELEN          FAIR      60  25  26 CALM      30.49F
6HR MIN TEMP:  33; 6HR MAX TEMP:  60;

SOCORRO        FAIR      62  25  25 CALM      30.47F
6HR MIN TEMP:  38; 6HR MAX TEMP:  62;


$$
NMZ524>526-539-540-161900-
SOUTHCENTRAL MOUNTAINS

CITY           SKY/WX    TMP DP  RH WIND       PRES   REMARKS
RUIDOSO        FAIR      63  23  22 SE3       30.54F

$$
NMZ527>531-161900-
NORTHEAST HIGHLANDS/NORTHEAST PLAINS

CITY           SKY/WX    TMP DP  RH WIND       PRES   REMARKS
LAS VEGAS      FAIR      65  24  21 S9        30.46F
6HR MIN TEMP:  28; 6HR MAX TEMP:  65;

RATON          FAIR      63  28  26 CALM      30.40F
6HR MIN TEMP:  27; 6HR MAX TEMP:  64;

CLAYTON        FAIR      63  35  35 SW17G25   30.36F
6HR MIN TEMP:  39; 6HR MAX TEMP:  64;


$$
NMZ532>537-161900-
EASTCENTRAL PLAINS

CITY           SKY/WX    TMP DP  RH WIND       PRES   REMARKS
SANTA ROSA     FAIR      67  32  27 S12G17    30.39F
TUCUMCARI      FAIR      70  35  27 SW18G24   30.37F
6HR MIN TEMP:  40; 6HR MAX TEMP:  70;

CANNON AFB     SUNNY     64  36  35 SW12G20   30.44F
6HR MIN TEMP:  40; 6HR MAX TEMP:  64;

CLOVIS AIRPORT FAIR      66  36  32 SW15      30.44F

$$
NMZ028-029-538-161900-
SOUTHEAST PLAINS

CITY           SKY/WX    TMP DP  RH WIND       PRES   REMARKS
ROSWELL        FAIR      66  37  34 S12       30.44F
6HR MIN TEMP:  42; 6HR MAX TEMP:  66;

ARTESIA        FAIR      64  34  32 SE10G18   30.44F
CARLSBAD       FAIR      66  35  31 SE12      30.43F
6HR MIN TEMP:  37; 6HR MAX TEMP:  66;

HOBBS          SUNNY     64  27  24 S6        30.46F


$$




USA.gov is the U.S. government's official web portal to all federal, state and local government web resources and services.